MEV-1

Last updated on Sat Feb 28 2026 00:02:53 GMT+0000 (Coordinated Universal Time)

1 44625U 19067B 26057.83942429 -.00000160 00000+0 00000+0 0 9991 2 44625 0.8853 269.7923 0003215 58.4490 286.7172 1.00269845 60471
UTC large
Height (km)
Speed (km/s)
/
Latitude / Longitude
Inclination (degrees)
Orbital Period (minutes)
Azimuth
Elevation
Range (km)
Doppler Factor

Next 0 passes for location: London (51.5072 / 0.1276)

Sorry there are no passes over London.